Weather History for LIEB - October, 2012

Change the Weather History Date:

Tuesday, October 16, 2012

  Actual Average (LIED) Record (LIED)
Temperature  
Mean Temperature 68 °F -  
Max Temperature 77 °F 67 °F 82 °F (2014)
Min Temperature 58 °F 56 °F 32 °F (2011)
Cooling Degree Days 2    
Growing Degree Days 18 (Base 50)    
Moisture  
Dew Point 43 °F    
Average Humidity 43    
Maximum Humidity 59    
Minimum Humidity 24    
Precipitation  
Precipitation 0.00 in 0.08 in - ()
Sea Level Pressure  
Sea Level Pressure 29.93 in    
Wind  
Wind Speed 6 mph ()    
Max Wind Speed 16 mph    
Max Gust Speed -    
Visibility 10.1 miles    
Events      
Averages and records for this station are not official NWS values.
T = Trace of Precipitation, MM = Missing Value Source: Averaged Metar Reports

Daily Weather History Graph

Daily Weather History Graph

Search for Another Location

Airport or City:

Trip Planner

Search our weather history database for the weather conditions in past years. The results will help you decide how hot, cold, wet, or windy it might be!

Date:

Astronomy

Oct. 16, 2012 Rise Set
Actual Time 7:32 AM CEST 6:39 PM CEST
Civil Twilight 7:05 AM CEST 7:07 PM CEST
Nautical Twilight 6:34 AM CEST 7:38 PM CEST
Astronomical Twilight 6:02 AM CEST 8:09 PM CEST
Moon 8:35 AM CEST (10/16) 7:11 PM CEST (10/16)
Length of Visible Light 12h 01m
Length of Day
11h 06m
New Moon, 1% of the Moon is Illuminated
Oct 16
New Moon
Oct 22
First Quarter
Oct 29
Full
Nov 7
Last Quarter
Nov 13
New

Hourly Weather History & Observations

Time (CEST) Temp. Dew Point Humidity Pressure Visibility Wind Dir Wind Speed Gust Speed Precip Events Conditions
12:55 AM 59.0 °F 33.8 °F 39% 29.77 in - South 4.6 mph - N/A   Clear
1:55 AM 59.0 °F 35.6 °F 42% 29.83 in - NW 5.8 mph - N/A   Clear
2:00 AM 59 °F 35 °F 28% 29.84 in 12 mi NW 5.8 mph - -  
2:55 AM 59.0 °F 41.0 °F 51% 29.83 in - WNW 9.2 mph - N/A   Clear
3:55 AM 59.0 °F 41.0 °F 51% 29.86 in - WNW 9.2 mph - N/A   Clear
4:55 AM 59.0 °F 41.0 °F 51% 29.83 in - Calm Calm - N/A   Clear
5:55 AM 59.0 °F 41.0 °F 51% 29.83 in - North 3.5 mph - N/A   Clear
6:55 AM 59.0 °F 33.8 °F 39% 29.83 in - NW 16.1 mph - N/A   Clear
7:55 AM 60.8 °F 32.0 °F 34% 29.86 in - NW 12.7 mph - N/A   Clear
8:00 AM 60 °F 33 °F 24% 29.86 in 12 mi NW 12.7 mph - -  
8:55 AM 60.8 °F 39.2 °F 45% 29.86 in - West 6.9 mph - N/A   Clear
9:55 AM 64.4 °F 41.0 °F 42% 29.92 in - North 3.5 mph - N/A   Clear
10:55 AM 71.6 °F 44.6 °F 38% 29.92 in - NW 8.1 mph - N/A   Clear
12:55 PM 75.2 °F 46.4 °F 36% 29.98 in - SSE 4.6 mph - N/A   Clear
1:55 PM 75.2 °F 48.2 °F 38% 29.98 in - SSE 5.8 mph - N/A   Clear
2:00 PM 75 °F 48 °F 27% 29.98 in 12 mi SSE 5.8 mph - -  
2:55 PM 75.2 °F 46.4 °F 36% 29.98 in - SSE 5.8 mph - N/A   Clear
3:55 PM 77.0 °F 50.0 °F 39% 29.98 in 6.2 mi SSE 4.6 mph - N/A   Partly Cloudy
4:55 PM 71.6 °F 50.0 °F 46% 29.98 in 6.2 mi SSE 4.6 mph - N/A   Partly Cloudy
5:55 PM 73.4 °F 51.8 °F 47% 30.01 in - SSE 4.6 mph - N/A   Clear
7:55 PM 66.2 °F 50.0 °F 56% 30.01 in - NW 12.7 mph - N/A   Clear
8:00 PM 67 °F 49 °F 42% 30.03 in 12 mi NW 12.7 mph - -   Clear
8:55 PM 66.2 °F 48.2 °F 52% 30.04 in - NW 12.7 mph - N/A   Clear
9:55 PM 64.4 °F 48.2 °F 56% 30.04 in - NW 11.5 mph - N/A   Clear
10:55 PM 62.6 °F 48.2 °F 59% 30.06 in - NW 11.5 mph - N/A   Clear
11:55 PM 62.6 °F 48.2 °F 59% 30.09 in - WNW 10.4 mph - N/A   Clear